sat.trackr.live / text

‹ back to catalog

GHGSAT-C8

NORAD 56186 · 2023-054J

PAYLOAD ACTIVE UNKNOWN

§ Identity

Operator
Country
CA
Launch date
2023-04-15
Launch site
AFWTR
Launch vehicle
Mass (kg)
RCS (m²)

External: N2YO · Heavens-Above · Gunter

§ Orbital elements

Epoch: 2026-05-25T05:11:47.614848Z

Period
92.77 min
Inclination
97.3006°
Eccentricity
0.0006125
Mean motion
15.52203390 rev/d
Perigee alt
406.1 km
Apogee alt
414.5 km
Semi-major
6,788.4 km
B*
2.5471e-4
RAAN
54.0553°
Arg perigee
130.9684°
Mean anomaly
229.2099°
Rev number
17,487

§ Raw data

GHGSAT-C81 56186U 23054J   26145.21652332  .00015357  00000+0  25471-3 0  99942 56186  97.3006  54.0553 0006125 130.9684 229.2099 15.52203390174870

JSON: /api/v1/satellites/56186 · /tle

For live sub-satellite position, see the globe view (requires WebGL).

§ Visibility from observer

Set your observer location to see the next 7 days of passes ≥ 10°. The values pass through the URL so the page stays shareable.

No JS? Fill the form by hand. The geolocation button needs JavaScript.